Total_Precipitation_Accumulation
2.49 3.24 3.91 4.39 4.99 5.74 6.30 6.22 5.62 5.23 4.82 4.34 3.89 3.97 3.89 3.67 3.43 3.25 3.12 3.16 3.09 2.94 3.00 2.67 2.84 2.49 2.56 2.72 2.89 3.27 3.49 3.43 3.39 3.72 3.80 3.32 2.83 2.84 2.76 2.66 2.94 2.96 2.96
2.53 3.32 3.90 4.01 3.98 4.25 4.48 4.00 3.83 3.88 3.60 3.45 3.48 3.48 3.39 3.11 2.95 2.98 3.28 2.97 2.96 2.85 2.63 2.78 2.58 2.55 2.81 2.85 3.00 3.28 3.41 3.35 3.42 3.66 4.05 3.77 3.66 3.09 2.32 2.52 2.67 2.77 3.03
2.61 3.13 3.28 3.25 3.08 3.02 3.02 2.82 2.81 3.16 3.18 3.28 3.37 3.40 3.42 3.26 3.11 2.96 3.15 2.85 2.64 2.59 2.65 2.59 2.67 2.87 2.58 2.87 3.08 3.11 3.40 3.50 3.36 3.34 3.82 3.83 3.73 3.20 2.53 2.34 2.40 2.63 2.97
2.58 2.62 2.18 1.99 2.06 2.13 2.26 2.54 2.67 2.87 2.84 3.01 3.00 2.95 2.76 2.67 2.62 2.60 2.77 2.86 2.57 2.45 2.46 2.59 2.92 3.09 2.81 3.06 2.62 2.81 3.21 3.45 3.38 3.40 3.15 3.00 3.11 3.31 3.16 2.67 2.39 2.51 2.64
1.63 1.56 1.43 1.42 1.60 1.85 2.10 2.45 2.60 2.69 2.65 2.66 2.76 2.95 2.89 2.92 2.82 2.77 3.06 3.08 3.10 2.86 2.53 2.53 2.82 3.03 3.03 3.13 2.96 3.21 3.02 2.97 3.00 3.12 3.11 3.05 2.92 2.69 2.89 2.92 2.73 2.58 2.28
0.99 1.09 1.20 1.42 1.67 1.82 1.91 2.13 2.32 2.58 2.62 2.61 2.67 2.72 2.81 3.04 3.04 3.03 2.89 2.75 2.88 2.85 2.60 2.58 2.93 2.97 3.01 3.18 3.06 3.04 2.93 2.96 2.99 2.88 2.78 3.07 3.06 2.85 2.94 2.69 2.63 2.55 2.05
0.84 1.05 1.20 1.43 1.54 1.60 1.60 1.75 1.85 2.08 2.33 2.42 2.45 2.54 2.70 2.86 2.85 2.92 2.88 2.78 2.57 2.44 2.54 2.69 3.03 2.99 2.98 2.95 3.03 2.97 3.00 3.08 3.11 2.97 2.78 2.78 2.82 2.86 2.88 2.82 2.46 2.32 2.04
0.78 0.89 1.09 1.17 1.23 1.39 1.57 1.75 1.73 1.74 1.81 1.94 2.17 2.33 2.35 2.46 2.50 2.85 2.75 2.72 2.57 2.41 2.51 2.66 2.63 2.62 2.71 2.61 2.94 2.76 2.75 2.89 2.95 2.79 3.13 3.01 2.62 2.77 2.85 2.99 3.20 2.95 2.60
0.87 0.87 0.89 1.10 1.19 1.09 1.18 1.39 1.52 1.61 1.70 1.77 1.98 2.00 1.98 2.09 2.32 2.41 2.27 2.13 2.22 2.32 2.44 2.48 2.54 2.57 2.58 2.63 2.86 2.77 2.81 3.01 2.84 2.82 3.24 3.02 2.64 2.64 2.72 2.94 3.30 3.58 3.16
0.83 0.91 0.92 1.00 1.07 1.06 1.19 1.31 1.43 1.56 1.65 1.66 1.75 1.62 1.73 1.83 2.05 2.16 2.14 2.04 1.98 2.15 2.30 2.38 2.48 2.54 2.50 2.60 2.78 2.63 2.82 2.92 2.82 2.83 2.94 2.86 2.62 2.68 2.77 2.95 3.21 3.51 3.44
0.72 0.85 0.87 0.96 0.99 0.97 1.07 1.25 1.47 1.57 1.49 1.50 1.52 1.61 1.72 1.89 1.97 1.96 2.00 2.03 2.04 2.17 2.29 2.39 2.46 2.46 2.49 2.64 2.75 2.60 2.77 2.75 2.86 2.78 2.74 2.70 2.92 2.99 2.82 2.99 3.13 3.37 3.61
0.79 0.88 0.89 0.91 0.90 0.91 0.98 1.11 1.31 1.48 1.53 1.52 1.61 1.75 1.83 1.93 1.99 1.90 1.99 2.20 2.22 2.26 2.36 2.46 2.54 2.44 2.53 2.68 2.63 2.62 2.69 2.73 2.71 2.82 3.02 2.93 3.12 3.15 3.09 3.29 3.29 3.39 3.65
0.78 0.83 0.97 0.91 0.86 0.91 0.97 1.12 1.38 1.58 1.77 1.86 1.85 1.88 1.86 1.93 2.05 2.10 2.13 2.25 2.34 2.40 2.39 2.39 2.45 2.60 2.78 2.79 2.62 2.61 2.60 2.51 2.42 2.60 2.89 3.19 3.66 3.51 3.34 3.23 3.15 3.19 3.26
0.73 0.85 0.99 1.07 1.15 1.17 1.18 1.30 1.47 1.56 1.73 1.76 1.79 1.91 1.99 2.11 2.24 2.31 2.37 2.40 2.40 2.41 2.48 2.56 2.58 2.65 2.68 2.65 2.65 2.70 2.69 2.64 2.50 2.51 2.63 2.81 3.11 3.27 3.41 3.20 3.10 3.18 3.27
0.90 0.94 1.07 1.22 1.32 1.41 1.40 1.38 1.46 1.51 1.69 2.06 2.28 2.43 2.44 2.46 2.56 2.62 2.60 2.63 2.58 2.51 2.73 2.80 2.76 2.74 2.68 2.49 2.71 2.87 2.74 2.80 2.69 2.62 2.56 2.40 2.52 2.71 2.90 2.76 3.07 3.26 3.20
1.10 1.21 1.28 1.37 1.42 1.50 1.60 1.65 1.67 1.77 1.97 2.42 2.78 2.90 2.91 2.91 2.93 2.96 2.94 2.94 2.89 3.03 3.09 2.96 2.89 2.82 2.55 2.74 2.82 2.87 2.89 2.96 2.86 2.75 2.70 2.50 2.33 2.31 2.45 2.51 2.71 2.97 3.00
1.09 1.18 1.32 1.46 1.53 1.65 1.73 1.85 1.95 2.04 2.17 2.42 2.64 2.75 2.84 2.92 3.08 3.09 3.07 3.07 3.08 3.12 3.13 3.21 3.16 3.02 3.10 3.14 2.80 2.76 2.76 2.79 2.76 2.95 3.03 2.57 2.15 2.37 2.32 2.38 2.38 2.30 2.44
1.11 1.21 1.29 1.52 1.69 1.86 2.09 2.36 2.52 2.62 2.58 2.64 2.80 2.90 2.87 2.90 2.96 2.95 2.86 2.87 3.01 3.05 3.01 2.96 2.89 2.84 2.84 2.93 2.66 2.60 2.46 2.48 2.51 2.56 2.61 2.58 2.38 2.30 2.30 2.25 2.09 1.92 1.93
1.32 1.51 1.71 1.80 1.90 2.01 2.17 2.42 2.71 2.89 2.89 2.76 2.85 2.98 3.08 3.17 3.07 2.98 2.96 2.99 3.06 2.96 2.91 2.89 2.89 2.78 2.74 2.78 2.57 2.55 2.34 2.29 2.22 2.21 2.21 2.23 2.08 2.15 2.12 2.01 1.95 1.87 1.76
1.44 1.62 1.80 1.88 1.90 2.05 2.16 2.29 2.49 2.63 2.70 2.74 2.86 3.00 3.10 3.26 3.36 3.30 3.32 3.25 3.17 3.11 3.08 3.03 3.03 2.93 2.84 2.96 2.70 2.57 2.33 2.28 2.27 2.36 2.32 2.27 2.10 2.09 1.98 1.82 1.83 1.68 1.56
1.39 1.44 1.51 1.67 1.75 1.83 1.97 2.17 2.28 2.27 2.36 2.47 2.52 2.70 2.93 3.16 3.32 3.41 3.42 3.42 3.33 3.24 3.03 2.87 2.84 2.76 2.73 2.88 2.70 2.54 2.29 2.26 2.35 2.42 2.46 2.39 2.29 1.99 1.85 1.73 1.63 1.61 1.76
1.35 1.36 1.46 1.58 1.67 1.84 2.14 2.37 2.36 2.31 2.34 2.45 2.58 2.72 2.95 3.05 3.09 3.21 3.26 3.41 3.38 3.26 3.15 2.90 2.70 2.57 2.41 2.38 2.41 2.26 2.15 2.19 2.25 2.32 2.44 2.47 2.38 2.09 1.96 1.81 1.67 1.74 1.74
1.41 1.37 1.41 1.56 1.79 2.04 2.32 2.57 2.56 2.59 2.63 2.68 2.78 2.86 2.95 3.05 3.13 3.20 3.21 3.20 3.18 3.03 2.90 2.74 2.63 2.54 2.44 2.37 2.23 1.98 1.93 1.97 1.95 2.06 2.44 2.54 2.38 2.15 1.88 1.78 1.79 1.73 1.61
1.46 1.43 1.46 1.58 1.79 1.93 2.06 2.31 2.46 2.51 2.69 2.71 2.64 2.64 2.64 2.70 2.80 2.91 2.95 2.90 2.81 2.76 2.69 2.59 2.53 2.44 2.37 2.27 2.18 2.03 1.90 1.90 1.86 1.85 2.07 2.16 2.10 1.90 1.75 1.67 1.60 1.52 1.54
1.56 1.55 1.61 1.71 1.75 1.79 1.85 1.98 2.18 2.34 2.55 2.68 2.70 2.73 2.73 2.76 2.82 2.88 2.96 2.85 2.70 2.67 2.57 2.43 2.46 2.46 2.31 2.25 2.28 2.11 1.94 1.89 1.97 1.98 1.92 1.96 2.04 2.01 1.93 1.92 1.86 1.79 1.71
1.64 1.70 1.77 1.82 1.82 1.81 1.90 2.01 2.18 2.43 2.71 2.72 2.64 2.67 2.75 2.85 2.95 2.99 3.03 3.08 2.80 2.71 2.56 2.47 2.41 2.33 2.21 2.11 1.96 1.89 1.84 1.79 1.79 1.71 1.71 1.87 2.03 2.14 2.14 2.18 2.14 2.05 1.97